EN

Hourly Weather Troica

Today, 23 April, Friday

Time Temperature Precipitation Wind Pressure Humidity
00:00 +7°C° 0 mm 3 mps 752 mmHg 84%
01:00 +7°C° 0 mm 3 mps 752 mmHg 85%
02:00 +5°C° 0 mm 3 mps 752 mmHg 85%
03:00 +5°C° 0 mm 3 mps 752 mmHg 86%
04:00 +5°C° 0 mm 3 mps 752 mmHg 87%
05:00 +5°C° 0 mm 3 mps 752 mmHg 88%
06:00 +5°C° 0 mm 3 mps 752 mmHg 89%
07:00 +7°C° 0.1 mm 4 mps 752 mmHg 81%
08:00 +10°C° 0.1 mm 4 mps 752 mmHg 74%
09:00 +12°C° 0 mm 5 mps 752 mmHg 66%
10:00 +14°C° 0 mm 5 mps 752 mmHg 59%
11:00 +15°C° 0 mm 5 mps 752 mmHg 51%
12:00 +16°C° 0 mm 6 mps 751 mmHg 44%
13:00 +16°C° 0 mm 6 mps 751 mmHg 45%
14:00 +16°C° 0 mm 5 mps 751 mmHg 46%
15:00 +16°C° 0 mm 5 mps 750 mmHg 51%
16:00 +15°C° 0.1 mm 5 mps 750 mmHg 54%
17:00 +14°C° 0.1 mm 4 mps 750 mmHg 57%
18:00 +14°C° 0.1 mm 4 mps 749 mmHg 60%
19:00 +12°C° 0 mm 4 mps 749 mmHg 67%
20:00 +11°C° 0 mm 4 mps 749 mmHg 73%
21:00 +8°C° 0 mm 4 mps 748 mmHg 79%
22:00 +8°C° 0.1 mm 4 mps 748 mmHg 81%
23:00 +8°C° 0.1 mm 4 mps 747 mmHg 83%

Tomorrow, 24 April, Saturday

Time Temperature Precipitation Wind Pressure Humidity
00:00 +7°C° 0.1 mm 4 mps 747 mmHg 86%
01:00 +7°C° 0 mm 4 mps 746 mmHg 87%
02:00 +7°C° 0 mm 4 mps 746 mmHg 89%
03:00 +6°C° 0 mm 4 mps 745 mmHg 91%
04:00 +6°C° 0.1 mm 4 mps 745 mmHg 92%
05:00 +6°C° 0.1 mm 4 mps 744 mmHg 92%
06:00 +6°C° 0.1 mm 4 mps 744 mmHg 93%
07:00 +7°C° 0.1 mm 5 mps 744 mmHg 89%
08:00 +8°C° 0.1 mm 5 mps 743 mmHg 84%
09:00 +9°C° 0.1 mm 6 mps 743 mmHg 79%
10:00 +7°C° 0.4 mm 6 mps 743 mmHg 84%
11:00 +4°C° 0.4 mm 6 mps 743 mmHg 88%
12:00 +2°C° 0.4 mm 5 mps 743 mmHg 93%
13:00 +2°C° 1.1 mm 5 mps 743 mmHg 92%
14:00 +2°C° 1.1 mm 5 mps 743 mmHg 92%
15:00 +2°C° 1.1 mm 5 mps 743 mmHg 91%
16:00 +3°C° 0.1 mm 5 mps 743 mmHg 87%
17:00 +5°C° 0.1 mm 4 mps 743 mmHg 83%
18:00 +5°C° 0.1 mm 4 mps 743 mmHg 79%
19:00 +5°C° 0.1 mm 3 mps 743 mmHg 82%
20:00 +4°C° 0.1 mm 3 mps 743 mmHg 85%
21:00 +3°C° 0.1 mm 3 mps 743 mmHg 88%
22:00 +3°C° 0.1 mm 3 mps 743 mmHg 90%
23:00 +2°C° 0.1 mm 3 mps 743 mmHg 91%

Day after tomorrow, 25 April, Sunday

Time Temperature Precipitation Wind Pressure Humidity
00:00 +2°C° 0.1 mm 3 mps 743 mmHg 93%
01:00 +1°C° 0.7 mm 4 mps 743 mmHg 93%
02:00 +1°C° 0.7 mm 4 mps 743 mmHg 92%
03:00 +1°C° 0.7 mm 5 mps 743 mmHg 92%
04:00 0°C° 0.1 mm 5 mps 744 mmHg 89%
05:00 0°C° 0.1 mm 5 mps 744 mmHg 86%
06:00 -1°C° 0.1 mm 5 mps 745 mmHg 84%
07:00 -1°C° 0 mm 6 mps 745 mmHg 81%
08:00 0°C° 0 mm 7 mps 745 mmHg 78%
09:00 +2°C° 0 mm 7 mps 746 mmHg 75%
10:00 +3°C° 0.1 mm 7 mps 746 mmHg 69%
11:00 +4°C° 0.1 mm 7 mps 746 mmHg 63%
12:00 +4°C° 0.1 mm 7 mps 747 mmHg 58%
13:00 +5°C° 0.2 mm 7 mps 747 mmHg 56%
14:00 +5°C° 0.2 mm 7 mps 747 mmHg 54%
15:00 +6°C° 0.2 mm 7 mps 747 mmHg 52%
16:00 +5°C° 0.2 mm 7 mps 747 mmHg 55%
17:00 +5°C° 0.2 mm 6 mps 747 mmHg 58%
18:00 +5°C° 0.2 mm 6 mps 747 mmHg 61%
19:00 +4°C° 0.1 mm 6 mps 747 mmHg 70%
20:00 +2°C° 0.1 mm 5 mps 747 mmHg 79%
21:00 +1°C° 0.1 mm 5 mps 747 mmHg 88%
22:00 +1°C° 0.2 mm 4 mps 747 mmHg 88%
23:00 +1°C° 0.2 mm 4 mps 747 mmHg 89%

26 April, Monday

Time Temperature Precipitation Wind Pressure Humidity
00:00 +2°C° 0.2 mm 3 mps 747 mmHg 90%
01:00 0°C° 0 mm 4 mps 747 mmHg 89%
02:00 0°C° 0 mm 4 mps 747 mmHg 88%
03:00 -1°C° 0 mm 4 mps 747 mmHg 86%
04:00 -1°C° 0 mm 4 mps 748 mmHg 86%
05:00 -1°C° 0 mm 4 mps 748 mmHg 85%
06:00 -1°C° 0 mm 4 mps 748 mmHg 85%
07:00 0°C° 0 mm 4 mps 748 mmHg 77%
08:00 +2°C° 0 mm 5 mps 748 mmHg 69%
09:00 +3°C° 0 mm 5 mps 748 mmHg 61%
10:00 +5°C° 0 mm 5 mps 748 mmHg 57%
11:00 +6°C° 0 mm 5 mps 748 mmHg 52%
12:00 +7°C° 0 mm 5 mps 748 mmHg 47%
13:00 +7°C° 0.1 mm 5 mps 748 mmHg 47%
14:00 +7°C° 0.1 mm 5 mps 748 mmHg 47%
15:00 +8°C° 0.1 mm 5 mps 748 mmHg 46%
16:00 +7°C° 0 mm 4 mps 747 mmHg 50%
17:00 +8°C° 0 mm 3 mps 747 mmHg 54%
18:00 +7°C° 0 mm 3 mps 747 mmHg 58%
19:00 +6°C° 0 mm 2 mps 747 mmHg 62%
20:00 +5°C° 0 mm 2 mps 747 mmHg 65%
21:00 +4°C° 0 mm 2 mps 747 mmHg 68%
22:00 +4°C° 0 mm 2 mps 746 mmHg 70%
23:00 +3°C° 0 mm 2 mps 746 mmHg 72%

27 April, Tuesday

Time Temperature Precipitation Wind Pressure Humidity
00:00 +4°C° 0 mm 1 mps 746 mmHg 73%
01:00 +4°C° 0 mm 1 mps 746 mmHg 75%
02:00 +3°C° 0 mm 1 mps 746 mmHg 77%
03:00 +3°C° 0 mm 1 mps 745 mmHg 79%
04:00 +3°C° 0 mm 1 mps 745 mmHg 80%
05:00 +3°C° 0 mm 1 mps 745 mmHg 81%
06:00 +3°C° 0 mm 1 mps 745 mmHg 82%
07:00 +4°C° 0.2 mm 1 mps 745 mmHg 77%
08:00 +6°C° 0.2 mm 1 mps 745 mmHg 72%
09:00 +7°C° 0.2 mm 1 mps 745 mmHg 67%
10:00 +6°C° 0.4 mm 2 mps 745 mmHg 62%
11:00 +7°C° 0.4 mm 2 mps 745 mmHg 57%
12:00 +8°C° 0.4 mm 2 mps 744 mmHg 52%
13:00 +8°C° 0.2 mm 3 mps 744 mmHg 51%
14:00 +8°C° 0.2 mm 3 mps 744 mmHg 50%
15:00 +8°C° 0.2 mm 4 mps 744 mmHg 49%
16:00 +8°C° 0.1 mm 3 mps 744 mmHg 51%
17:00 +8°C° 0.1 mm 3 mps 744 mmHg 53%
18:00 +8°C° 0.1 mm 2 mps 744 mmHg 54%
19:00 +6°C° 0.1 mm 2 mps 744 mmHg 59%
20:00 +5°C° 0.1 mm 2 mps 744 mmHg 64%
21:00 +4°C° 0.1 mm 2 mps 745 mmHg 69%
22:00 +3°C° 0 mm 2 mps 745 mmHg 72%
23:00 +2°C° 0 mm 3 mps 745 mmHg 75%

28 April, Wednesday

Time Temperature Precipitation Wind Pressure Humidity
00:00 +1°C° 0 mm 3 mps 745 mmHg 78%
01:00 +1°C° 0 mm 3 mps 746 mmHg 81%
02:00 0°C° 0 mm 3 mps 746 mmHg 84%
03:00 0°C° 0 mm 3 mps 746 mmHg 87%
04:00 0°C° 0 mm 3 mps 747 mmHg 87%
05:00 0°C° 0 mm 3 mps 747 mmHg 87%
06:00 0°C° 0 mm 3 mps 747 mmHg 88%
07:00 +2°C° 0 mm 3 mps 748 mmHg 79%
08:00 +4°C° 0 mm 3 mps 748 mmHg 71%
09:00 +6°C° 0 mm 4 mps 748 mmHg 63%
10:00 +7°C° 0 mm 4 mps 748 mmHg 58%
11:00 +8°C° 0 mm 5 mps 749 mmHg 52%
12:00 +9°C° 0 mm 5 mps 749 mmHg 47%
13:00 +9°C° 0 mm 5 mps 749 mmHg 48%
14:00 +9°C° 0 mm 5 mps 749 mmHg 48%
15:00 +9°C° 0 mm 5 mps 749 mmHg 49%
16:00 +8°C° 0 mm 5 mps 749 mmHg 54%
17:00 +8°C° 0 mm 4 mps 750 mmHg 59%
18:00 +7°C° 0 mm 4 mps 750 mmHg 64%
19:00 +7°C° 0 mm 3 mps 750 mmHg 69%
20:00 +5°C° 0 mm 3 mps 750 mmHg 74%
21:00 +4°C° 0 mm 2 mps 751 mmHg 80%
22:00 +5°C° 0 mm 1 mps 751 mmHg 80%
23:00 +5°C° 0 mm 1 mps 751 mmHg 80%
Show more

We Need Your Consent

Meteoprog and our Service Providers may store and access personal data such as cookies, device identifiers or other similar technologies on your device and process such data to personalise content and ads, as well as provide social media features and to analyse the traffic.

  • Store and/or access information on your device

    Cookies, device identifiers or other information can be stored or accessed on your device for the purposes indicated above.

  • Personalised ads and content, ad and content measurement, audience insights, and products development

    Ads and content can be personalised based on a profile. More data can be added to better personalise ads and content. Ad and content performance can be measured. Insights about the audience who saw the ads and content can be derived. Such data can be used to develop or improve user’s experience, systems and software.

By clicking ‘I Agree’ you will allow the use of indicated cookies, device identifiers, web beacons or other similar technologies. Your settings can be changed in the browser on your device.

For certain purposes, legitimate interests may be relied on, rather than consent. You can read more about this in our Privacy and Cookie Policy.